Weather History for Kingston, Jamaica

Change the Weather History Date:

Monday, November 14, 2011

  Actual Average Record
Temperature  
Mean Temperature 84 °F -  
Max Temperature 91 °F 85 °F 92 °F (2013)
Min Temperature 76 °F 76 °F 71 °F (1996)
Cooling Degree Days 18    
Growing Degree Days 34 (Base 50)    
Moisture  
Dew Point 75 °F    
Average Humidity 73    
Maximum Humidity 89    
Minimum Humidity 51    
Precipitation  
Precipitation 0.00 in - - ()
Sea Level Pressure  
Sea Level Pressure 29.91 in    
Wind  
Wind Speed 9 mph ()    
Max Wind Speed 76 mph    
Max Gust Speed -    
Visibility 8.9 miles    
Events Thunderstorm    
Averages and records for this station are not official NWS values.
T = Trace of Precipitation, MM = Missing Value Source: Averaged Metar Reports

Daily Weather History Graph

Daily Weather History Graph

Search for Another Location

Airport:

Trip Planner

Search our weather history database for the weather conditions in past years. The results will help you decide how hot, cold, wet, or windy it might be!

Date:

Astronomy

Nov. 14, 2011 Rise Set
Actual Time 6:12 AM EST 5:30 PM EST
Civil Twilight 5:49 AM EST 5:53 PM EST
Nautical Twilight 5:23 AM EST 6:19 PM EST
Astronomical Twilight 4:56 AM EST 6:45 PM EST
Moon 8:44 PM EST (11/14) 9:18 AM EST (11/14)
Length of Visible Light 12h 04m
Length of Day
11h 18m
Waning Gibbous, 87% of the Moon is Illuminated
Nov 14
Waning Gibbous
Nov 18
Last Quarter
Nov 25
New
Dec 2
First Quarter
Dec 10
Full

Hourly Weather History & Observations

Time (EST) Temp. Heat Index Dew Point Humidity Pressure Visibility Wind Dir Wind Speed Gust Speed Precip Events Conditions
12:00 AM 80.6 °F 85.4 °F 73.4 °F 79% 29.92 in - NW 3.5 mph - N/A   Partly Cloudy
1:00 AM 80 °F - - % 29.93 in 4 mi NW 5.8 mph - -   Haze
1:00 AM 80.6 °F 85.4 °F 73.4 °F 79% - 6.2 mi NW 5.8 mph - N/A   Partly Cloudy
2:00 AM 80.6 °F 85.4 °F 73.4 °F 79% 29.89 in 6.2 mi NNW 76.0 mph - N/A   Partly Cloudy
3:00 AM 80.6 °F 86.2 °F 75.2 °F 84% 29.89 in 6.2 mi NNW 5.8 mph - N/A   Partly Cloudy
4:00 AM 80 °F - 74 °F 79% 29.90 in 4 mi North 3.5 mph - -   Scattered Clouds
4:00 AM 80.6 °F 86.2 °F 75.2 °F 84% 29.89 in - North 3.5 mph - N/A   Partly Cloudy
5:00 AM 80.6 °F 84.6 °F 71.6 °F 74% 29.89 in - North 4.6 mph - N/A   Partly Cloudy
6:00 AM 80.6 °F 84.6 °F 71.6 °F 74% 29.92 in - North 11.5 mph - N/A   Partly Cloudy
7:00 AM 81 °F - 74 °F 74% 29.94 in 4 mi North 8.1 mph - -   Haze
7:00 AM 80.6 °F 85.4 °F 73.4 °F 79% 29.92 in 6.2 mi North 8.1 mph - N/A   Partly Cloudy
8:00 AM 82.4 °F 87.2 °F 71.6 °F 70% 29.95 in - NNE 8.1 mph - N/A   Partly Cloudy
9:00 AM 84.2 °F 94.1 °F 77.0 °F 79% 29.95 in - WNW 11.5 mph - N/A   Partly Cloudy
10:00 AM 87 °F - 77 °F 65% 29.97 in 17 mi Calm Calm - -   Haze
10:00 AM 87.8 °F 99.7 °F 77.0 °F 70% 29.95 in - SW 6.9 mph - N/A   Partly Cloudy
11:00 AM 89.6 °F 99.8 °F 75.2 °F 62% 29.95 in - South 5.8 mph - N/A   Partly Cloudy
12:00 PM 89.6 °F 104.7 °F 78.8 °F 70% 29.92 in - South 6.9 mph - N/A   Partly Cloudy
1:00 PM 91 °F - 75 °F 51% 29.90 in 17 mi Calm Calm - -   Haze
1:00 PM 91.4 °F 102.5 °F 75.2 °F 59% 29.89 in - South 9.2 mph - N/A   Partly Cloudy
2:00 PM 89.6 °F 102.2 °F 77.0 °F 66% 29.86 in - SSE 8.1 mph - N/A   Partly Cloudy
3:00 PM 89.6 °F 104.7 °F 78.8 °F 70% 29.86 in - ESE 16.1 mph - N/A   Partly Cloudy
4:00 PM 89 °F - 77 °F 61% 29.86 in 17 mi SE 12.7 mph - -   Haze
4:00 PM 89.6 °F 102.2 °F 77.0 °F 66% 29.86 in - SE 17.3 mph - N/A   Partly Cloudy
5:00 PM 86.0 °F 96.9 °F 77.0 °F 74% 29.86 in - ESE 18.4 mph - N/A   Partly Cloudy
6:00 PM 84.2 °F 94.1 °F 77.0 °F 79% 29.86 in - ESE 17.3 mph - N/A   Partly Cloudy
7:00 PM 85 °F - 76 °F 68% 29.91 in 12 mi ESE 12.7 mph - -   Haze
7:00 PM 82.4 °F 92.4 °F 78.8 °F 89% 29.92 in 6.2 mi North 9.2 mph - N/A Thunderstorm Mostly Cloudy
8:00 PM - - - N/A% - 6.2 mi Calm Calm - N/A   Partly Cloudy
9:00 PM 82.4 °F 90.9 °F 77.0 °F 84% 29.92 in - NE 2.3 mph - N/A   Partly Cloudy
10:00 PM 82 °F - 76 °F 76% 29.94 in 12 mi Calm Calm - -   Scattered Clouds
10:00 PM 82.4 °F 89.5 °F 75.2 °F 79% 29.92 in - Variable 1.2 mph - N/A   Partly Cloudy
11:00 PM 82.4 °F 89.5 °F 75.2 °F 79% 29.92 in - West 2.3 mph - N/A   Partly Cloudy